Location: Julian California
(33.0790°N, 116.6010°W)
Time: 08:26:52
(UTC-07:00)

Terra - Pass Details

Date: 19 May 2017
Orbit: 701 x 703 km, 98.2° (Epoch: 21 May)

Event Time Altitude Azimuth Distance (km) Brightness Sun altitude
Exits shadow 21:41:01 14° 63° (ENE) 1,905 3.9 -21.4°
Drops below altitude 10° 21:43:12 10° 35° (NE) 2,167 4.4 -21.7°
Sets 21:46:29 0° 11° (N) 3,090 5.6 -22.2°
